[[{"header":{"parameterUnit":"m.s-1","parameterCategory":1,"la1":30.2991,"la2":30.254,"lo1":-89.0895,"lo2":-89.0444,"dy":0.0017,"dx":0.0017,"nx":28,"ny":28,"refTime":"2024-04-26T09:00:00:Z","depth":0,"parameterNumber":2,"parameterNumberName":"U-component_of_WINDS"},"data":[0,0,0,0,0,0,0,0,0,0,0,0,0,0,0,0,0,0,0,0,0,0,0,0,0,0,0,0,0,0,0,0,0,0,0,0,0,0,0,0,0,0,0,0,0,0,0,0,0,0,0,0,0,0,0,0,0,0,-4.2058,-4.2059,0,-4.2106,-4.2107,-4.2107,-4.2086,-4.2084,-4.2083,-4.2082,-4.213,-4.2133,-4.2135,0,0,0,0,0,0,0,0,0,0,0,0,0,-4.1948,-4.195,-4.2058,-4.2059,-4.2059,-4.2106,-4.2107,-4.2107,-4.2086,-4.2084,-4.2083,-4.2082,-4.2129,-4.2132,-4.2135,0,0,0,0,0,0,0,0,0,0,0,0,0,-4.1996,-4.1951,-4.2058,-4.2054,-4.2054,-4.2106,-4.2107,-4.2108,-4.2086,-4.2084,-4.2082,-4.2081,-4.2128,-4.2132,-4.2136,-4.2193,0,0,-4.2146,-4.2148,0,0,0,0,0,0,0,0,-4.1993,-4.2,-4.2054,-4.2055,-4.2055,-4.2088,-4.2086,-4.2136,-4.2087,-4.2074,-4.2082,-4.208,-4.2118,-4.2122,-4.2135,-4.2196,-4.2198,-4.2147,-4.2149,-4.215,-4.2152,0,0,0,0,0,0,0,-4.199,-4.1998,-4.2077,-4.2055,-4.2055,-4.205,-4.2055,-4.2095,-4.2105,-4.2075,-4.2074,-4.208,-4.2117,-4.2131,-4.2136,-4.2198,-4.2147,-4.215,-4.2152,-4.2153,-4.231,-4.2312,0,0,0,0,0,0,-4.1987,-4.1995,-4.2076,-4.2079,-4.2019,-4.2054,-4.2059,-4.2079,-4.2105,-4.2107,-4.2081,-4.2078,-4.2126,-4.2132,-4.2137,-4.2206,-4.215,-4.2154,-4.2156,-4.2308,-4.2311,-4.2313,0,0,0,0,0,0,-4.1985,-4.1994,-4.2074,-4.2037,-4.2046,-4.2058,-4.208,-4.2081,-4.2095,-4.2109,-4.2111,-4.2093,-4.2125,-4.2132,-4.218,-4.2208,-4.2155,-4.2159,-4.2306,-4.2309,-4.2312,-4.2345,0,0,0,0,0,0,-4.1982,-4.1994,-4.2015,-4.2037,-4.2048,-4.2115,-4.2082,-4.2083,-4.2101,-4.2098,-4.2121,-4.2123,-4.2124,-4.2175,-4.2183,-4.2212,-4.2162,-4.2303,-4.2307,-4.2311,-4.2341,-4.2349,-4.2355,0,0,0,0,0,-4.1978,-4.2022,-4.2016,-4.2026,-4.2076,-4.2117,-4.2123,-4.2123,-4.2104,-4.2126,-4.2135,-4.2123,-4.2204,-4.218,-4.2189,-4.2219,-4.2301,-4.2306,-4.231,-4.2338,-4.2347,-4.2355,0,0,0,0,0,0,-4.2002,-4.2025,-4.2019,-4.2072,-4.2093,-4.2113,-4.214,-4.2133,-4.2159,-4.2155,-4.2154,-4.216,-4.2208,-4.2219,-4.2192,-4.2277,-4.225,-4.2256,-4.2268,-4.2276,-4.2283,-4.2278,-4.2164,0,0,0,0,0,-4.2014,-4.2046,-4.2064,-4.2109,-4.212,-4.2129,-4.2146,-4.2145,-4.2166,-4.2175,-4.2188,-4.2209,-4.2239,-4.2259,-4.2288,-4.2344,-4.2348,-4.237,-4.2377,-4.2382,-4.2387,-4.2418,-4.2427,-4.2328,-4.2327,-4.2327,0,0,-4.2038,-4.2055,-4.2074,-4.2114,-4.213,-4.2163,-4.2136,-4.2171,-4.2195,-4.218,-4.2225,-4.2236,-4.226,-4.2312,-4.2336,-4.2322,-4.2416,-4.2388,-4.2392,-4.2394,-4.2423,-4.2432,-4.2441,-4.2331,-4.233,-4.233,0,0,-4.2098,-4.2114,-4.2153,-4.2171,-4.2195,-4.2202,-4.2211,-4.2234,-4.224,-4.2286,-4.2276,-4.2305,-4.2357,-4.2374,-4.239,-4.246,-4.2449,-4.247,-4.2504,-4.2534,-4.2542,-4.2549,-4.2572,-4.2581,-4.2475,-4.2475,-4.2475,0,-4.2124,-4.2173,-4.2175,-4.2211,-4.2229,-4.2219,-4.2258,-4.2275,-4.2308,-4.232,-4.2306,-4.2372,-4.2387,-4.2443,-4.2461,-4.2474,-4.2485,-4.2465,-4.2541,-4.2548,-4.2554,-4.2576,-4.2586,-4.2477,-4.2477,-4.2477,-4.2477,0,-4.2203,-4.2238,-4.2266,-4.2299,-4.2321,-4.2359,-4.2366,-4.2388,-4.2387,-4.2394,-4.2442,-4.2461,-4.2493,-4.2507,-4.2505,-4.2563,-4.2554,-4.2541,-4.2512,-4.2566,-4.2587,-4.2595,-4.2481,-4.248,-4.2479,-4.2479,0,0,-4.2276,-4.2312,-4.2322,-4.2337,-4.2365,-4.2391,-4.243,-4.2462,-4.2481,-4.2505,-4.2536,-4.2583,-4.2571,-4.2589,-4.2589,-4.2616,-4.2669,-4.2599,-4.2599,-4.2609,-4.2734,-4.2742,-4.2752,-4.2664,-4.2666,-4.2667,-4.2731,0,-4.2337,-4.2403,-4.2407,-4.2467,-4.2499,-4.2491,-4.2525,-4.2546,-4.2555,-4.2583,-4.2594,-4.2626,-4.2608,-4.2619,-4.2646,-4.2657,-4.2693,-4.2653,-4.2692,-4.2693,-4.2683,-4.2763,-4.2771,-4.283,-4.2739,-4.2741,-4.2742,0,-4.2415,-4.2442,-4.2506,-4.253,-4.2544,-4.2573,-4.2604,-4.2632,-4.2656,-4.2661,-4.2683,-4.268,-4.272,-4.2694,-4.2748,-4.272,-4.2737,-4.2746,-4.2748,-4.2749,-4.2718,-4.2764,-4.285,-4.2858,-4.2755,-4.2754,-4.2753,0,-4.246,-4.2513,-4.2557,-4.2571,-4.2601,-4.2622,-4.2636,-4.2659,-4.2679,-4.2706,-4.2719,-4.2751,-4.2767,-4.2792,-4.2799,-4.2779,-4.2853,-4.2827,-4.2858,-4.2857,-4.287,-4.2869,-4.2957,-4.2886,-4.2886,-4.2886,-4.2886,0,-4.2525,-4.2563,-4.2578,-4.2605,-4.2648,-4.2654,-4.2697,-4.2709,-4.273,-4.276,-4.2757,-4.2785,-4.2793,-4.2823,-4.2828,-4.2872,-4.2881,-4.2885,-4.2886,-4.2884,-4.2883,-4.2893,-4.2888,-4.2888,-4.2888,-4.2887,-4.2887,0,-4.258,-4.2591,-4.2639,-4.2665,-4.2673,-4.2704,-4.2726,-4.2752,-4.2763,-4.28,-4.281,-4.2825,-4.2861,-4.2871,-4.2913,-4.2917,-4.2968,-4.2966,-4.2959,-4.2958,-4.2987,-4.2983,-4.3083,-4.3095,-4.3018,-4.3019,-4.3019,0,-4.262,-4.2649,-4.2679,-4.2699,-4.2713,-4.2746,-4.2766,-4.2774,-4.2795,-4.2827,-4.2849,-4.2884,-4.2912,-4.2969,-4.2984,-4.3017,-4.3014,-4.3047,-4.3019,-4.3016,-4.3012,-4.3009,-4.3012,-4.3051,-4.3052,-4.3052,-4.3053,0,-4.2688,-4.2693,-4.2722,-4.2754,-4.2779,-4.2805,-4.2829,-4.2846,-4.2857,-4.2882,-4.2918,-4.294,-4.2984,-4.3018,-4.3051,-4.3066,-4.3061,-4.3063,-4.3071,-4.3067,-4.3062,-4.3063,-4.2971,-4.3059,-4.3058,-4.3058,-4.3058,-4.3057,-4.2735,-4.2761,-4.2786,-4.282,-4.284,-4.2863,-4.2889,-4.2904,-4.2934,-4.297,-4.2973,-4.3012,-4.3038,-4.3082,-4.3099,-4.313,-4.312,-4.3132,-4.3135,-4.3138,-4.3139,-4.306,-4.3136,-4.3136,-4.3136,-4.3136,-4.3136,0,-4.2802,-4.2818,-4.2849,-4.2884,-4.2911,-4.2906,-4.2933,-4.2956,-4.299,-4.3015,-4.3043,-4.3085,-4.3119,-4.3138,-4.3172,-4.3193,-4.3192,-4.3202,-4.3199,-4.3202,-4.3147,-4.3135,-4.3202,-4.3202,-4.3202,-4.3202,-4.3202,-4.3202,-4.2839,-4.2883,-4.2891,-4.2945,-4.2961,-4.2999,-4.3015,-4.3037,-4.3057,-4.3104,-4.3132,-4.3145,-4.3168,-4.3204,-4.3235,-4.324,-4.3252,-4.3262,-4.3266,-4.3213,-4.3206,-4.3199,-4.3188,-4.3266,-4.3266,-4.3319,-4.3319,-4.3319]},{"header":{"parameterUnit":"m.s-1","parameterCategory":1,"la1":30.2991,"la2":30.254,"lo1":-89.0895,"lo2":-89.0444,"dy":0.0017,"dx":0.0017,"nx":28,"ny":28,"refTime":"2024-04-26T09:00:00:Z","depth":0,"parameterNumber":3,"parameterNumberName":"V-component_of_WINDS"},"data":[0,0,0,0,0,0,0,0,0,0,0,0,0,0,0,0,0,0,0,0,0,0,0,0,0,0,0,0,0,0,0,0,0,0,0,0,0,0,0,0,0,0,0,0,0,0,0,0,0,0,0,0,0,0,0,0,0,0,4.975,4.975,0,4.9739,4.9739,4.9739,4.9738,4.9738,4.9739,4.9739,4.9724,4.9723,4.9723,0,0,0,0,0,0,0,0,0,0,0,0,0,4.9767,4.9766,4.975,4.975,4.9749,4.9739,4.9739,4.9739,4.9738,4.9738,4.9739,4.9739,4.9724,4.9724,4.9723,0,0,0,0,0,0,0,0,0,0,0,0,0,4.9758,4.9766,4.975,4.9748,4.9748,4.9739,4.9739,4.9739,4.9738,4.9738,4.9739,4.9739,4.9724,4.9724,4.9723,4.9714,0,0,4.9721,4.972,0,0,0,0,0,0,0,0,4.9758,4.9757,4.9748,4.9748,4.9748,4.974,4.974,4.9731,4.9738,4.9742,4.9739,4.9739,4.9729,4.9728,4.9725,4.9714,4.9713,4.972,4.972,4.972,4.9719,0,0,0,0,0,0,0,4.9759,4.9758,4.9745,4.9748,4.9748,4.9747,4.9746,4.9738,4.9734,4.9741,4.9741,4.974,4.9729,4.9726,4.9725,4.9713,4.972,4.972,4.9719,4.9719,4.9696,4.9696,0,0,0,0,0,0,4.976,4.9758,4.9746,4.9745,4.9754,4.9747,4.9745,4.9742,4.9734,4.9733,4.974,4.974,4.9727,4.9726,4.9724,4.9716,4.972,4.9719,4.9719,4.9696,4.9696,4.9696,0,0,0,0,0,0,4.9761,4.9759,4.9746,4.9752,4.975,4.9746,4.9743,4.9742,4.9739,4.9734,4.9733,4.9738,4.9727,4.9726,4.9718,4.9715,4.9719,4.9718,4.9697,4.9696,4.9696,4.9697,0,0,0,0,0,0,4.9761,4.9759,4.9756,4.9752,4.975,4.974,4.9743,4.9742,4.9739,4.9739,4.9731,4.973,4.9727,4.9719,4.9717,4.9714,4.9717,4.9697,4.9696,4.9696,4.9697,4.9697,4.9696,0,0,0,0,0,4.9762,4.9756,4.9756,4.9755,4.9746,4.974,4.9739,4.9737,4.9738,4.9735,4.9732,4.9731,4.9716,4.9718,4.9716,4.9713,4.9697,4.9697,4.9696,4.9697,4.9697,4.9696,0,0,0,0,0,0,4.9758,4.9755,4.9755,4.9748,4.9744,4.974,4.9736,4.9736,4.9731,4.9731,4.9727,4.9726,4.9718,4.9715,4.9717,4.9705,4.9707,4.9706,4.9708,4.9707,4.9707,4.9708,4.9717,0,0,0,0,0,4.9756,4.9753,4.975,4.9743,4.9742,4.9739,4.9736,4.9735,4.9731,4.9729,4.9725,4.972,4.9715,4.9711,4.9705,4.9697,4.9696,4.9694,4.9693,4.9693,4.9692,4.9689,4.9689,4.9695,4.9695,4.9695,0,0,4.9752,4.975,4.9748,4.9742,4.9739,4.9735,4.9738,4.9732,4.9729,4.9728,4.9721,4.9718,4.9713,4.9705,4.9701,4.9702,4.9691,4.9693,4.9693,4.9692,4.9689,4.9688,4.9688,4.9695,4.9695,4.9695,0,0,4.9743,4.9741,4.9736,4.9735,4.9732,4.973,4.9729,4.9726,4.9724,4.9718,4.9718,4.9713,4.9703,4.97,4.9697,4.9691,4.969,4.9689,4.9687,4.9684,4.9683,4.9683,4.9682,4.9681,4.9688,4.9688,4.9688,0,4.9738,4.9733,4.9733,4.9729,4.9727,4.9729,4.9724,4.9722,4.9716,4.9715,4.9716,4.9705,4.9701,4.9694,4.9693,4.969,4.9689,4.9689,4.9684,4.9683,4.9683,4.9681,4.9681,4.9688,4.9688,4.9688,4.9688,0,4.9728,4.9724,4.972,4.9718,4.9716,4.9711,4.9711,4.9708,4.9709,4.9707,4.9702,4.9698,4.9692,4.9691,4.9689,4.9684,4.9684,4.9685,4.9686,4.9682,4.9681,4.968,4.9688,4.9688,4.9688,4.9688,0,0,4.9713,4.9714,4.9712,4.9712,4.971,4.9707,4.9703,4.97,4.9699,4.9695,4.9692,4.9686,4.9687,4.9684,4.9683,4.968,4.9677,4.9681,4.9681,4.9681,4.9672,4.9672,4.9671,4.9677,4.9677,4.9677,4.9673,0,4.9704,4.9699,4.9701,4.9695,4.9692,4.9695,4.9692,4.969,4.969,4.9687,4.9686,4.9682,4.9683,4.9682,4.968,4.9678,4.9675,4.9678,4.9674,4.9674,4.9675,4.967,4.9669,4.9665,4.9672,4.9672,4.9672,0,4.9692,4.9692,4.9686,4.9688,4.9687,4.9684,4.9682,4.968,4.9679,4.9679,4.9677,4.9677,4.9674,4.9676,4.9671,4.9673,4.9672,4.9671,4.9671,4.967,4.9672,4.9669,4.9664,4.9664,4.9671,4.9671,4.9671,0,4.9683,4.9681,4.9678,4.9678,4.9679,4.9677,4.9677,4.9677,4.9676,4.9674,4.9673,4.9671,4.9669,4.9667,4.9667,4.9669,4.9663,4.9665,4.9663,4.9663,4.9661,4.9661,4.9655,4.966,4.966,4.966,4.966,0,4.9673,4.967,4.9675,4.9673,4.967,4.9672,4.9669,4.9669,4.9669,4.9667,4.9669,4.9667,4.9667,4.9665,4.9665,4.9662,4.9661,4.9661,4.9661,4.9661,4.9661,4.9659,4.9659,4.966,4.966,4.966,4.966,0,4.9662,4.9665,4.9662,4.9665,4.9665,4.9663,4.9665,4.9663,4.9665,4.9662,4.9662,4.9663,4.9661,4.9661,4.9658,4.9659,4.9655,4.9655,4.9656,4.9656,4.9654,4.9655,4.9647,4.9647,4.9652,4.9652,4.9652,0,4.9655,4.9653,4.9656,4.9657,4.9657,4.9657,4.9657,4.9659,4.9659,4.966,4.9658,4.9657,4.9656,4.9653,4.9653,4.9652,4.9652,4.965,4.9652,4.9652,4.9653,4.9653,4.9653,4.9649,4.9649,4.9649,4.9649,0,4.9643,4.9645,4.9645,4.9647,4.9648,4.9649,4.9649,4.9649,4.9652,4.9652,4.9651,4.9651,4.965,4.9649,4.9649,4.9648,4.9649,4.9649,4.9648,4.9648,4.9649,4.9649,4.9655,4.9648,4.9649,4.9649,4.9649,4.9649,4.9633,4.9633,4.9636,4.9637,4.9639,4.9641,4.964,4.9643,4.9643,4.9643,4.9645,4.9645,4.9645,4.9645,4.9645,4.9644,4.9645,4.9644,4.9644,4.9644,4.9644,4.965,4.9644,4.9644,4.9644,4.9644,4.9644,0,4.9622,4.9625,4.9626,4.9629,4.963,4.9634,4.9636,4.9636,4.9636,4.9638,4.9638,4.9639,4.9639,4.964,4.964,4.964,4.964,4.964,4.9639,4.964,4.9643,4.9644,4.9639,4.9639,4.9639,4.9639,4.9639,4.9639,4.9616,4.9616,4.9619,4.9621,4.9623,4.9624,4.9626,4.9627,4.9629,4.963,4.9631,4.9633,4.9634,4.9635,4.9636,4.9636,4.9636,4.9635,4.9636,4.9639,4.9639,4.964,4.964,4.9635,4.9635,4.9633,4.9633,4.9633]}]]